• In Deutschland
  • Länderverzeichnis
  • Für 7 Tage
  • Wassertemperatur
  • Satellitenkarten
  • Wetterkarte
  • Widgets
  • user-avatar
    Anmelden

    Stündliche Wetter Bruchsal

    Heute, 18 Oktober, Mittwoch

    Zeit Temperatur Niederschläge Wind Luftdruck Luftfeuchtigkeit
    00:00 +14°C° 0 mm 1 m/S 753 mmHg 66%
    01:00 +14°C° 0 mm 1 m/S 753 mmHg 67%
    02:00 +14°C° 0 mm 1 m/S 752 mmHg 67%
    03:00 +14°C° 0 mm 1 m/S 752 mmHg 66%
    04:00 +13°C° 0 mm 1 m/S 752 mmHg 66%
    05:00 +13°C° 0 mm 1 m/S 752 mmHg 66%
    06:00 +13°C° 0 mm 1 m/S 752 mmHg 65%
    07:00 +13°C° 0 mm 1 m/S 751 mmHg 65%
    08:00 +15°C° 0 mm 1 m/S 751 mmHg 60%
    09:00 +18°C° 0 mm 1 m/S 751 mmHg 55%
    10:00 +20°C° 0 mm 1 m/S 751 mmHg 51%
    11:00 +21°C° 0 mm 1 m/S 751 mmHg 48%
    12:00 +22°C° 0 mm 1 m/S 751 mmHg 45%
    13:00 +23°C° 0 mm 2 m/S 751 mmHg 43%
    14:00 +23°C° 0 mm 1 m/S 750 mmHg 46%
    15:00 +23°C° 0 mm 1 m/S 750 mmHg 49%
    16:00 +22°C° 0 mm 1 m/S 749 mmHg 52%
    17:00 +21°C° 0 mm 1 m/S 750 mmHg 56%
    18:00 +19°C° 0 mm 1 m/S 750 mmHg 60%
    19:00 +16°C° 0 mm 1 m/S 750 mmHg 63%
    20:00 +15°C° 0 mm 1 m/S 750 mmHg 65%
    21:00 +15°C° 0 mm 1 m/S 750 mmHg 66%
    22:00 +14°C° 0 mm 1 m/S 750 mmHg 68%
    23:00 +14°C° 0 mm 1 m/S 750 mmHg 69%

    Morgen, 19 Oktober, Donnerstag

    Zeit Temperatur Niederschläge Wind Luftdruck Luftfeuchtigkeit
    00:00 +14°C° 0 mm 1 m/S 750 mmHg 70%
    01:00 +13°C° 0 mm 1 m/S 750 mmHg 71%
    02:00 +13°C° 0 mm 1 m/S 749 mmHg 71%
    03:00 +13°C° 0 mm 1 m/S 749 mmHg 72%
    04:00 +13°C° 0 mm 1 m/S 749 mmHg 72%
    05:00 +12°C° 0 mm 1 m/S 749 mmHg 72%
    06:00 +12°C° 0 mm 1 m/S 749 mmHg 72%
    07:00 +12°C° 0 mm 1 m/S 749 mmHg 72%
    08:00 +14°C° 0 mm 1 m/S 749 mmHg 68%
    09:00 +16°C° 0 mm 1 m/S 749 mmHg 63%
    10:00 +18°C° 0 mm 1 m/S 749 mmHg 59%
    11:00 +20°C° 0 mm 1 m/S 749 mmHg 55%
    12:00 +21°C° 0 mm 1 m/S 749 mmHg 51%
    13:00 +23°C° 0 mm 1 m/S 749 mmHg 47%
    14:00 +23°C° 0 mm 1 m/S 748 mmHg 50%
    15:00 +22°C° 0 mm 1 m/S 748 mmHg 53%
    16:00 +22°C° 0 mm 1 m/S 748 mmHg 57%
    17:00 +20°C° 0 mm 1 m/S 748 mmHg 62%
    18:00 +19°C° 0 mm 1 m/S 748 mmHg 67%
    19:00 +16°C° 0 mm 1 m/S 748 mmHg 73%
    20:00 +15°C° 0 mm 1 m/S 748 mmHg 75%
    21:00 +15°C° 0 mm 1 m/S 748 mmHg 77%
    22:00 +14°C° 0 mm 1 m/S 749 mmHg 79%
    23:00 +14°C° 0 mm 1 m/S 749 mmHg 80%

    übermorgen, 20 Oktober, Freitag

    Zeit Temperatur Niederschläge Wind Luftdruck Luftfeuchtigkeit
    00:00 +14°C° 0 mm 1 m/S 749 mmHg 81%
    01:00 +13°C° 0 mm 1 m/S 749 mmHg 82%
    02:00 +13°C° 0 mm 1 m/S 749 mmHg 82%
    03:00 +13°C° 0 mm 1 m/S 749 mmHg 83%
    04:00 +13°C° 0 mm 1 m/S 749 mmHg 83%
    05:00 +12°C° 0 mm 1 m/S 749 mmHg 83%
    06:00 +12°C° 0 mm 1 m/S 749 mmHg 82%
    07:00 +12°C° 0 mm 1 m/S 749 mmHg 82%
    08:00 +14°C° 0 mm 1 m/S 750 mmHg 75%
    09:00 +16°C° 0 mm 1 m/S 750 mmHg 69%
    10:00 +19°C° 0 mm 1 m/S 750 mmHg 63%
    11:00 +20°C° 0 mm 1 m/S 750 mmHg 59%
    12:00 +20°C° 0 mm 2 m/S 750 mmHg 55%
    13:00 +21°C° 0 mm 2 m/S 750 mmHg 50%
    14:00 +21°C° 0 mm 2 m/S 750 mmHg 52%
    15:00 +21°C° 0 mm 2 m/S 750 mmHg 54%
    16:00 +22°C° 0 mm 1 m/S 750 mmHg 56%
    17:00 +20°C° 0 mm 1 m/S 750 mmHg 61%
    18:00 +19°C° 0 mm 1 m/S 750 mmHg 66%
    19:00 +16°C° 0 mm 1 m/S 751 mmHg 71%
    20:00 +16°C° 0 mm 1 m/S 751 mmHg 73%
    21:00 +15°C° 0 mm 1 m/S 751 mmHg 75%
    22:00 +15°C° 0 mm 1 m/S 751 mmHg 77%
    23:00 +15°C° 0 mm 1 m/S 751 mmHg 78%

    21 Oktober, Samstag

    Zeit Temperatur Niederschläge Wind Luftdruck Luftfeuchtigkeit
    00:00 +14°C° 0 mm 1 m/S 751 mmHg 79%
    01:00 +14°C° 0 mm 1 m/S 751 mmHg 79%
    02:00 +14°C° 0 mm 2 m/S 751 mmHg 78%
    03:00 +15°C° 0 mm 2 m/S 750 mmHg 77%
    04:00 +15°C° 0 mm 2 m/S 750 mmHg 75%
    05:00 +15°C° 0 mm 2 m/S 750 mmHg 74%
    06:00 +15°C° 0 mm 2 m/S 750 mmHg 74%
    07:00 +15°C° 0 mm 2 m/S 750 mmHg 73%
    08:00 +16°C° 0 mm 2 m/S 750 mmHg 68%
    09:00 +18°C° 0 mm 3 m/S 750 mmHg 63%
    10:00 +19°C° 0 mm 3 m/S 750 mmHg 58%
    11:00 +20°C° 0,1 mm 3 m/S 750 mmHg 58%
    12:00 +20°C° 0,1 mm 3 m/S 750 mmHg 58%
    13:00 +21°C° 0,1 mm 4 m/S 750 mmHg 58%
    14:00 +20°C° 0,1 mm 4 m/S 750 mmHg 65%
    15:00 +19°C° 0,1 mm 3 m/S 750 mmHg 71%
    16:00 +17°C° 0,1 mm 3 m/S 750 mmHg 78%
    17:00 +17°C° 0,2 mm 3 m/S 751 mmHg 81%
    18:00 +16°C° 0,2 mm 3 m/S 751 mmHg 83%
    19:00 +14°C° 0,2 mm 3 m/S 752 mmHg 86%
    20:00 +14°C° 0,3 mm 3 m/S 752 mmHg 85%
    21:00 +14°C° 0,3 mm 3 m/S 752 mmHg 85%
    22:00 +13°C° 0,3 mm 3 m/S 752 mmHg 84%
    23:00 +13°C° 0,1 mm 3 m/S 752 mmHg 84%

    22 Oktober, Sonntag

    Zeit Temperatur Niederschläge Wind Luftdruck Luftfeuchtigkeit
    00:00 +13°C° 0,1 mm 3 m/S 752 mmHg 84%
    01:00 +12°C° 0,1 mm 3 m/S 752 mmHg 84%
    02:00 +12°C° 0,4 mm 3 m/S 753 mmHg 85%
    03:00 +12°C° 0,4 mm 3 m/S 753 mmHg 86%
    04:00 +11°C° 0,4 mm 4 m/S 753 mmHg 86%
    05:00 +11°C° 0,1 mm 3 m/S 753 mmHg 86%
    06:00 +11°C° 0,1 mm 3 m/S 753 mmHg 86%
    07:00 +10°C° 0,1 mm 3 m/S 753 mmHg 86%
    08:00 +11°C° 0,1 mm 4 m/S 754 mmHg 83%
    09:00 +11°C° 0,1 mm 4 m/S 754 mmHg 80%
    10:00 +10°C° 0,1 mm 5 m/S 754 mmHg 77%
    11:00 +12°C° 0,1 mm 5 m/S 754 mmHg 73%
    12:00 +12°C° 0,1 mm 5 m/S 755 mmHg 70%
    13:00 +13°C° 0,1 mm 5 m/S 755 mmHg 66%
    14:00 +12°C° 0 mm 5 m/S 755 mmHg 66%
    15:00 +12°C° 0 mm 5 m/S 755 mmHg 66%
    16:00 +12°C° 0 mm 4 m/S 755 mmHg 66%
    17:00 +11°C° 0 mm 4 m/S 755 mmHg 69%
    18:00 +10°C° 0 mm 4 m/S 756 mmHg 73%
    19:00 +9°C° 0 mm 3 m/S 756 mmHg 76%
    20:00 +9°C° 0 mm 3 m/S 757 mmHg 77%
    21:00 +9°C° 0 mm 3 m/S 757 mmHg 79%
    22:00 +9°C° 0 mm 3 m/S 758 mmHg 80%
    23:00 +8°C° 0 mm 3 m/S 758 mmHg 82%

    23 Oktober, Montag

    Zeit Temperatur Niederschläge Wind Luftdruck Luftfeuchtigkeit
    00:00 +8°C° 0 mm 3 m/S 758 mmHg 83%
    01:00 +8°C° 0 mm 3 m/S 758 mmHg 85%
    02:00 +7°C° 0 mm 3 m/S 758 mmHg 85%
    03:00 +7°C° 0 mm 3 m/S 758 mmHg 86%
    04:00 +7°C° 0 mm 3 m/S 758 mmHg 86%
    05:00 +7°C° 0 mm 3 m/S 759 mmHg 86%
    06:00 +6°C° 0 mm 2 m/S 759 mmHg 87%
    07:00 +6°C° 0 mm 2 m/S 759 mmHg 87%
    08:00 +8°C° 0 mm 3 m/S 759 mmHg 81%
    09:00 +9°C° 0 mm 3 m/S 759 mmHg 74%
    10:00 +11°C° 0 mm 3 m/S 760 mmHg 68%
    11:00 +12°C° 0 mm 3 m/S 759 mmHg 66%
    12:00 +12°C° 0 mm 3 m/S 759 mmHg 63%
    13:00 +13°C° 0 mm 3 m/S 758 mmHg 60%
    14:00 +13°C° 0 mm 3 m/S 758 mmHg 61%
    15:00 +15°C° 0 mm 2 m/S 757 mmHg 61%
    16:00 +15°C° 0 mm 2 m/S 757 mmHg 62%
    17:00 +14°C° 0 mm 2 m/S 757 mmHg 65%
    18:00 +13°C° 0 mm 2 m/S 757 mmHg 68%
    19:00 +12°C° 0 mm 2 m/S 757 mmHg 71%
    20:00 +10°C° 0 mm 2 m/S 757 mmHg 72%
    21:00 +10°C° 0 mm 2 m/S 757 mmHg 73%
    22:00 +10°C° 0 mm 2 m/S 757 mmHg 73%
    23:00 +9°C° 0 mm 2 m/S 757 mmHg 74%
    Mehr zeigen